| time (UTC) | temp C | wind direction | speed KPH | gust KPH | rain 1hr cm | rain 24hr cm | rain mn cm | humidity % | barometer mb |
| 20260906101007 | 20 | 131 | 0.0 | 0.0 | 0.00 | 0.00 | 0.00 | 93 | 1031.4 |
| 20260906100456 | 20 | 109 | 0.0 | 0.0 | 0.00 | 0.00 | 0.00 | 93 | 1031.4 |
| 20260906095951 | 20 | 111 | 0.0 | 0.0 | 0.00 | 0.00 | 0.00 | 92 | 1031.4 |
| 20260906095948 | 20 | 109 | 0.0 | 0.0 | 0.00 | 0.00 | 0.00 | 93 | 1031.5 |
| 20260906094921 | 20 | 111 | 0.0 | 0.0 | 0.00 | 0.00 | 0.00 | 92 | 1031.3 |
| 20260906094354 | 20 | 111 | 0.0 | 0.0 | 0.00 | 0.00 | 0.00 | 92 | 1031.2 |
| 20260906093833 | 20 | 111 | 0.0 | 0.0 | 0.00 | 0.00 | 0.00 | 92 | 1031.2 |
| 20260906093336 | 21 | 103 | 0.0 | 0.0 | 0.00 | 0.00 | 0.00 | 92 | 1031.2 |
| 20260906092809 | 21 | 91 | 0.0 | 0.0 | 0.00 | 0.00 | 0.00 | 92 | 1031.1 |
| 20260906092244 | 21 | 91 | 0.0 | 0.0 | 0.00 | 0.00 | 0.00 | 92 | 1031.0 |
| 20260906091716 | 21 | 91 | 0.0 | 0.0 | 0.00 | 0.00 | 0.00 | 91 | 1030.9 |
| 20260906091213 | 21 | 91 | 0.0 | 0.0 | 0.00 | 0.00 | 0.00 | 91 | 1030.9 |
| 20260906090713 | 21 | 90 | 0.0 | 0.0 | 0.00 | 0.00 | 0.00 | 91 | 1030.9 |
| 20260906090151 | 21 | 90 | 0.0 | 0.0 | 0.00 | 0.00 | 0.00 | 91 | 1030.9 |
| 20260906085650 | 21 | 90 | 0.0 | 0.0 | 0.00 | 0.00 | 0.00 | 91 | 1030.9 |
| 20260906085626 | 21 | 96 | 0.0 | 0.0 | 0.00 | 0.00 | 0.00 | 91 | 1030.9 |
| 20260906084555 | 21 | 96 | 0.0 | 0.0 | 0.00 | 0.00 | 0.00 | 91 | 1031.0 |
| 20260906084051 | 21 | 104 | 0.0 | 0.0 | 0.00 | 0.00 | 0.00 | 91 | 1030.8 |
| 20260906083526 | 21 | 116 | 0.0 | 0.0 | 0.00 | 0.00 | 0.00 | 90 | 1030.8 |
| 20260906083018 | 21 | 168 | 0.0 | 0.0 | 0.00 | 0.00 | 0.00 | 90 | 1030.8 |
| 20260906082722 | 21 | 113 | 0.0 | 1.6 | 0.00 | 0.00 | 0.00 | 90 | 1030.6 |
| 20260906081923 | 21 | 113 | 0.0 | 1.6 | 0.00 | 0.00 | 0.00 | 90 | 1030.6 |
| 20260906081419 | 21 | 105 | 0.0 | 0.0 | 0.00 | 0.00 | 0.00 | 90 | 1030.6 |
| 20260906080856 | 21 | 108 | 0.0 | 0.0 | 0.00 | 0.00 | 0.00 | 90 | 1030.6 |
| 20260906080335 | 21 | 109 | 0.0 | 0.0 | 0.00 | 0.00 | 0.00 | 89 | 1030.6 |
| 20260906075753 | 21 | 109 | 0.0 | 0.0 | 0.00 | 0.00 | 0.00 | 89 | 1030.7 |
| 20260906075253 | 21 | 104 | 0.0 | 3.2 | 0.00 | 0.00 | 0.00 | 89 | 1030.7 |
| 20260906074726 | 21 | 109 | 0.0 | 3.2 | 0.00 | 0.00 | 0.00 | 89 | 1030.7 |
| 20260906074228 | 21 | 109 | 0.0 | 3.2 | 0.00 | 0.00 | 0.00 | 89 | 1030.7 |
| 20260906073935 | 22 | 99 | 0.0 | 1.6 | 0.00 | 0.00 | 0.00 | 89 | 1030.7 |
| 20260906073203 | 22 | 106 | 0.0 | 1.6 | 0.00 | 0.00 | 0.00 | 89 | 1030.8 |
| 20260906072705 | 22 | 98 | 0.0 | 0.0 | 0.00 | 0.00 | 0.00 | 88 | 1030.8 |
| 20260906072141 | 22 | 98 | 0.0 | 0.0 | 0.00 | 0.00 | 0.00 | 88 | 1030.9 |
| 20260906071611 | 22 | 82 | 0.0 | 0.0 | 0.00 | 0.00 | 0.00 | 88 | 1030.9 |
| 20260906071110 | 22 | 134 | 0.0 | 0.0 | 0.00 | 0.00 | 0.00 | 88 | 1030.9 |
| 20260906070605 | 22 | 100 | 0.0 | 0.0 | 0.00 | 0.00 | 0.00 | 88 | 1031.0 |
| 20260906065543 | 22 | 91 | 0.0 | 0.0 | 0.00 | 0.00 | 0.00 | 88 | 1031.2 |
| 20260906065041 | 22 | 103 | 0.0 | 0.0 | 0.00 | 0.00 | 0.00 | 88 | 1031.3 |
| 20260906064748 | 22 | 104 | 0.0 | 0.0 | 0.00 | 0.00 | 0.00 | 88 | 1031.3 |
| 20260906063947 | 22 | 111 | 0.0 | 0.0 | 0.00 | 0.00 | 0.00 | 88 | 1031.3 |
| 20260906063446 | 22 | 111 | 0.0 | 0.0 | 0.00 | 0.00 | 0.00 | 88 | 1031.2 |
| 20260906062925 | 22 | 109 | 0.0 | 0.0 | 0.00 | 0.00 | 0.00 | 88 | 1031.2 |
| 20260906062344 | 22 | 104 | 0.0 | 0.0 | 0.00 | 0.00 | 0.00 | 88 | 1031.1 |
| 20260906061841 | 22 | 100 | 0.0 | 0.0 | 0.00 | 0.00 | 0.00 | 88 | 1031.2 |
| 20260906061316 | 22 | 100 | 0.0 | 0.0 | 0.00 | 0.00 | 0.00 | 88 | 1031.2 |
| 20260906060811 | 22 | 88 | 0.0 | 0.0 | 0.00 | 0.00 | 0.00 | 88 | 1031.3 |
| 20260906060310 | 22 | 88 | 0.0 | 0.0 | 0.00 | 0.00 | 0.00 | 88 | 1031.3 |
| 20260906055753 | 22 | 96 | 0.0 | 0.0 | 0.00 | 0.00 | 0.00 | 89 | 1031.2 |
| 20260906055255 | 22 | 95 | 0.0 | 0.0 | 0.00 | 0.00 | 0.00 | 88 | 1031.2 |
| 20260906054730 | 22 | 91 | 0.0 | 0.0 | 0.00 | 0.00 | 0.00 | 88 | 1031.2 |
| 20260906054502 | 22 | 92 | 0.0 | 0.0 | 0.00 | 0.00 | 0.00 | 88 | 1031.2 |
| 20260906053943 | 22 | 80 | 0.0 | 0.0 | 0.00 | 0.00 | 0.00 | 88 | 1031.2 |
| 20260906053210 | 22 | 74 | 0.0 | 0.0 | 0.00 | 0.00 | 0.00 | 88 | 1031.2 |
| 20260906052642 | 22 | 71 | 0.0 | 0.0 | 0.00 | 0.00 | 0.00 | 87 | 1031.2 |
| 20260906052131 | 22 | 69 | 0.0 | 0.0 | 0.00 | 0.00 | 0.00 | 87 | 1031.2 |
| 20260906051628 | 22 | 74 | 0.0 | 0.0 | 0.00 | 0.00 | 0.00 | 87 | 1031.2 |
| 20260906051104 | 22 | 66 | 0.0 | 0.0 | 0.00 | 0.00 | 0.00 | 87 | 1031.2 |
| 20260906050538 | 22 | 76 | 0.0 | 0.0 | 0.00 | 0.00 | 0.00 | 87 | 1031.4 |
| 20260906050011 | 22 | 76 | 0.0 | 0.0 | 0.00 | 0.00 | 0.00 | 87 | 1031.5 |
| 20260906045455 | 22 | 76 | 0.0 | 0.0 | 0.00 | 0.00 | 0.00 | 87 | 1031.5 |
| 20260906045226 | 22 | 76 | 0.0 | 0.0 | 0.00 | 0.00 | 0.00 | 87 | 1031.5 |
| 20260906044723 | 22 | 71 | 0.0 | 0.0 | 0.00 | 0.00 | 0.00 | 87 | 1031.5 |
| 20260906044222 | 23 | 71 | 0.0 | 0.0 | 0.00 | 0.00 | 0.00 | 87 | 1031.6 |
| 20260906043424 | 23 | 71 | 0.0 | 0.0 | 0.00 | 0.00 | 0.00 | 87 | 1031.6 |
| 20260906042851 | 23 | 71 | 0.0 | 0.0 | 0.00 | 0.00 | 0.00 | 87 | 1031.5 |
| 20260906042602 | 23 | 71 | 0.0 | 0.0 | 0.00 | 0.00 | 0.00 | 87 | 1031.6 |
| 20260906041752 | 23 | 68 | 0.0 | 0.0 | 0.00 | 0.00 | 0.00 | 87 | 1031.7 |
| 20260906041222 | 23 | 68 | 0.0 | 0.0 | 0.00 | 0.00 | 0.00 | 87 | 1031.6 |
| 20260906040719 | 23 | 67 | 0.0 | 0.0 | 0.00 | 0.00 | 0.00 | 87 | 1031.5 |
| 20260906040153 | 23 | 65 | 0.0 | 0.0 | 0.00 | 0.00 | 0.00 | 87 | 1031.6 |
| 20260906035630 | 23 | 65 | 0.0 | 0.0 | 0.00 | 0.00 | 0.00 | 87 | 1031.6 |
| 20260906035128 | 23 | 65 | 0.0 | 0.0 | 0.00 | 0.00 | 0.00 | 87 | 1031.6 |
| 20260906034629 | 23 | 169 | 0.0 | 0.0 | 0.00 | 0.00 | 0.00 | 86 | 1031.6 |
| 20260906034128 | 23 | 169 | 0.0 | 0.0 | 0.00 | 0.00 | 0.00 | 86 | 1031.5 |
| 20260906033629 | 23 | 169 | 0.0 | 0.0 | 0.00 | 0.00 | 0.00 | 86 | 1031.5 |
| 20260906033101 | 23 | 169 | 0.0 | 0.0 | 0.00 | 0.00 | 0.00 | 86 | 1031.5 |
| 20260906032600 | 23 | 169 | 0.0 | 0.0 | 0.00 | 0.00 | 0.00 | 85 | 1031.5 |
| 20260906032039 | 23 | 169 | 0.0 | 0.0 | 0.00 | 0.00 | 0.00 | 85 | 1031.5 |
| 20260906031517 | 23 | 169 | 0.0 | 0.0 | 0.00 | 0.00 | 0.00 | 85 | 1031.4 |
| 20260906031016 | 23 | 169 | 0.0 | 0.0 | 0.00 | 0.00 | 0.00 | 85 | 1031.4 |
| 20260906030450 | 23 | 169 | 0.0 | 0.0 | 0.00 | 0.00 | 0.00 | 85 | 1031.5 |
| 20260906025945 | 23 | 169 | 0.0 | 0.0 | 0.00 | 0.00 | 0.00 | 85 | 1031.6 |
| 20260906025441 | 23 | 169 | 0.0 | 0.0 | 0.00 | 0.00 | 0.00 | 84 | 1031.6 |
| 20260906025215 | 23 | 169 | 0.0 | 0.0 | 0.00 | 0.00 | 0.00 | 84 | 1031.6 |
| 20260906024441 | 23 | 169 | 0.0 | 0.0 | 0.00 | 0.00 | 0.00 | 84 | 1031.7 |
| 20260906023913 | 23 | 169 | 0.0 | 0.0 | 0.00 | 0.00 | 0.00 | 84 | 1031.8 |
| 20260906023642 | 23 | 169 | 0.0 | 0.0 | 0.00 | 0.00 | 0.00 | 84 | 1031.6 |
| 20260906022851 | 23 | 169 | 0.0 | 0.0 | 0.00 | 0.00 | 0.00 | 84 | 1031.5 |
| 20260906022349 | 23 | 169 | 0.0 | 0.0 | 0.00 | 0.00 | 0.00 | 84 | 1031.5 |
| 20260906022119 | 23 | 188 | 0.0 | 0.0 | 0.00 | 0.00 | 0.00 | 84 | 1031.4 |
| 20260906021352 | 23 | 188 | 0.0 | 0.0 | 0.00 | 0.00 | 0.00 | 84 | 1031.3 |
| 20260906020839 | 23 | 188 | 0.0 | 0.0 | 0.00 | 0.00 | 0.00 | 84 | 1031.1 |
| 20260906020340 | 23 | 188 | 0.0 | 0.0 | 0.00 | 0.00 | 0.00 | 84 | 1030.9 |
| 20260906015821 | 23 | 190 | 0.0 | 0.0 | 0.00 | 0.00 | 0.00 | 83 | 1030.7 |
| 20260906015550 | 24 | 190 | 0.0 | 0.0 | 0.00 | 0.00 | 0.00 | 83 | 1030.6 |
| 20260906014818 | 24 | 190 | 0.0 | 0.0 | 0.00 | 0.00 | 0.00 | 82 | 1030.5 |
| 20260906014550 | 24 | 190 | 0.0 | 0.0 | 0.00 | 0.00 | 0.00 | 82 | 1030.4 |
| 20260906013817 | 24 | 190 | 0.0 | 0.0 | 0.00 | 0.00 | 0.00 | 82 | 1030.2 |
| 20260906013252 | 24 | 188 | 0.0 | 0.0 | 0.00 | 0.00 | 0.00 | 81 | 1030.2 |
| 20260906012725 | 24 | 176 | 0.0 | 0.0 | 0.00 | 0.00 | 0.00 | 81 | 1030.1 |
| 20260906012224 | 25 | 150 | 0.0 | 0.0 | 0.00 | 0.00 | 0.00 | 80 | 1030.1 |
| 20260906011953 | 25 | 150 | 0.0 | 0.0 | 0.00 | 0.00 | 0.00 | 80 | 1029.9 |
| 20260906011457 | 25 | 172 | 0.0 | 0.0 | 0.00 | 0.00 | 0.00 | 79 | 1029.7 |
| 20260906010657 | 25 | 113 | 0.0 | 0.0 | 0.00 | 0.00 | 0.00 | 78 | 1029.6 |
| 20260906010155 | 25 | 113 | 0.0 | 0.0 | 0.00 | 0.00 | 0.00 | 78 | 1029.7 |
| 20260906005902 | 25 | 113 | 0.0 | 0.0 | 0.00 | 0.00 | 0.00 | 78 | 1029.7 |
| 20260906005109 | 25 | 131 | 0.0 | 0.0 | 0.00 | 0.00 | 0.00 | 77 | 1029.7 |
| 20260906004608 | 25 | 147 | 0.0 | 0.0 | 0.00 | 0.00 | 0.00 | 76 | 1029.6 |
| 20260906004107 | 25 | 146 | 0.0 | 0.0 | 0.00 | 0.00 | 0.00 | 76 | 1029.6 |
| 20260906003607 | 26 | 147 | 0.0 | 0.0 | 0.00 | 0.00 | 0.00 | 75 | 1029.4 |
| 20260906003057 | 26 | 188 | 0.0 | 0.0 | 0.00 | 0.00 | 0.00 | 75 | 1029.4 |
| 20260906002555 | 26 | 195 | 0.0 | 0.0 | 0.00 | 0.00 | 0.00 | 74 | 1029.4 |
| 20260906002047 | 26 | 157 | 0.0 | 0.0 | 0.00 | 0.00 | 0.00 | 74 | 1029.4 |
| 20260906001544 | 26 | 147 | 0.0 | 0.0 | 0.00 | 0.00 | 0.00 | 73 | 1029.3 |
| 20260906001017 | 26 | 202 | 0.0 | 0.0 | 0.00 | 0.00 | 0.00 | 73 | 1029.2 |
| 20260906000516 | 26 | 119 | 0.0 | 3.2 | 0.00 | 0.00 | 0.00 | 73 | 1029.2 |
| 20260905235952 | 26 | 217 | 0.0 | 3.2 | 0.00 | 0.00 | 0.00 | 73 | 1029.2 |
| 20260905235454 | 26 | 125 | 0.0 | 1.6 | 0.00 | 0.00 | 0.00 | 73 | 1029.1 |
| 20260905234949 | 26 | 117 | 0.0 | 6.4 | 0.00 | 0.00 | 0.00 | 72 | 1029.0 |
| 20260905234448 | 26 | 99 | 0.0 | 6.4 | 0.00 | 0.00 | 0.00 | 71 | 1029.1 |
| 20260905234204 | 27 | 115 | 0.0 | 4.8 | 0.00 | 0.00 | 0.00 | 70 | 1029.1 |
| 20260905233430 | 27 | 186 | 0.0 | 4.8 | 0.00 | 0.00 | 0.00 | 70 | 1029.2 |
| 20260905233142 | 27 | 117 | 0.0 | 4.8 | 0.00 | 0.00 | 0.00 | 70 | 1029.1 |
| 20260905232351 | 27 | 146 | 0.0 | 1.6 | 0.00 | 0.00 | 0.00 | 70 | 1029.1 |
| 20260905231851 | 27 | 98 | 0.0 | 1.6 | 0.00 | 0.00 | 0.00 | 69 | 1029.0 |
| 20260905231622 | 27 | 121 | 0.0 | 1.6 | 0.00 | 0.00 | 0.00 | 68 | 1028.9 |
| 20260905230840 | 27 | 114 | 0.0 | 8.0 | 0.00 | 0.00 | 0.00 | 68 | 1028.7 |
| 20260905230322 | 27 | 82 | 0.0 | 8.0 | 0.00 | 0.00 | 0.00 | 67 | 1028.7 |
| 20260905225822 | 28 | 94 | 0.0 | 9.7 | 0.00 | 0.00 | 0.00 | 67 | 1028.8 |
| 20260905225258 | 28 | 132 | 0.0 | 9.7 | 0.00 | 0.00 | 0.00 | 66 | 1028.7 |
| 20260905225018 | 28 | 104 | 0.0 | 9.7 | 0.00 | 0.00 | 0.00 | 66 | 1028.5 |
| 20260905224246 | 28 | 111 | 0.0 | 9.7 | 0.00 | 0.00 | 0.00 | 65 | 1028.4 |
| 20260905223722 | 28 | 94 | 0.0 | 4.8 | 0.00 | 0.00 | 0.00 | 66 | 1028.4 |
| 20260905223427 | 28 | 90 | 0.0 | 3.2 | 0.00 | 0.00 | 0.00 | 65 | 1028.3 |
| 20260905222648 | 28 | 99 | 0.0 | 3.2 | 0.00 | 0.00 | 0.00 | 67 | 1028.3 |
| 20260905222144 | 28 | 107 | 0.0 | 3.2 | 0.00 | 0.00 | 0.00 | 66 | 1028.2 |
| 20260905221647 | 28 | 74 | 0.0 | 1.6 | 0.00 | 0.00 | 0.00 | 66 | 1028.3 |
| 20260905221624 | 28 | 109 | 0.0 | 1.6 | 0.00 | 0.00 | 0.00 | 66 | 1028.4 |
| 20260905220607 | 28 | 107 | 0.0 | 1.6 | 0.00 | 0.00 | 0.00 | 67 | 1028.4 |
| 20260905220557 | 27 | 71 | 0.0 | 1.6 | 0.00 | 0.00 | 0.00 | 68 | 1028.5 |
| 20260905215544 | 27 | 69 | 0.0 | 0.0 | 0.00 | 0.00 | 0.00 | 68 | 1028.6 |
| 20260905215315 | 27 | 53 | 0.0 | 0.0 | 0.00 | 0.00 | 0.00 | 69 | 1028.7 |
| 20260905214544 | 27 | 95 | 0.0 | 3.2 | 0.00 | 0.00 | 0.00 | 69 | 1028.7 |
| 20260905214040 | 27 | 99 | 0.0 | 3.2 | 0.00 | 0.00 | 0.00 | 68 | 1028.8 |
| 20260905213539 | 27 | 93 | 0.0 | 1.6 | 0.00 | 0.00 | 0.00 | 68 | 1028.9 |
| 20260905213039 | 28 | 47 | 0.0 | 0.0 | 0.00 | 0.00 | 0.00 | 69 | 1028.9 |
| 20260905212540 | 28 | 47 | 0.0 | 0.0 | 0.00 | 0.00 | 0.00 | 68 | 1028.9 |
| 20260905212035 | 28 | 59 | 0.0 | 1.6 | 0.00 | 0.00 | 0.00 | 68 | 1028.9 |
| 20260905211534 | 28 | 68 | 0.0 | 1.6 | 0.00 | 0.00 | 0.00 | 67 | 1028.9 |
| 20260905211035 | 28 | 30 | 0.0 | 9.7 | 0.00 | 0.00 | 0.00 | 68 | 1028.9 |
| 20260905210528 | 28 | 114 | 0.0 | 9.7 | 0.00 | 0.00 | 0.00 | 66 | 1028.9 |
| 20260905210004 | 28 | 92 | 0.0 | 11.3 | 0.00 | 0.00 | 0.00 | 65 | 1028.9 |
| 20260905205706 | 29 | 99 | 0.0 | 11.3 | 0.00 | 0.00 | 0.00 | 67 | 1028.8 |
| 20260905205142 | 29 | 30 | 0.0 | 12.9 | 0.00 | 0.00 | 0.00 | 67 | 1028.8 |
| 20260905204349 | 28 | 32 | 0.0 | 4.8 | 0.00 | 0.00 | 0.00 | 69 | 1028.8 |
| 20260905204119 | 28 | 75 | 0.0 | 16.1 | 0.00 | 0.00 | 0.00 | 70 | 1028.8 |
| 20260905203338 | 28 | 43 | 0.0 | 16.1 | 0.00 | 0.00 | 0.00 | 70 | 1029.0 |
| 20260905202815 | 28 | 59 | 0.0 | 9.7 | 0.00 | 0.00 | 0.00 | 70 | 1029.1 |
| 20260905202248 | 28 | 5 | 0.0 | 9.7 | 0.00 | 0.00 | 0.00 | 70 | 1029.1 |
| 20260905202014 | 28 | 65 | 0.0 | 4.8 | 0.00 | 0.00 | 0.00 | 71 | 1029.3 |
| 20260905201239 | 28 | 68 | 0.0 | 8.0 | 0.00 | 0.00 | 0.00 | 71 | 1029.4 |
| 20260905200727 | 28 | 79 | 0.0 | 8.0 | 0.00 | 0.00 | 0.00 | 70 | 1029.4 |
| 20260905200224 | 28 | 63 | 0.0 | 6.4 | 0.00 | 0.00 | 0.00 | 70 | 1029.8 |
| 20260905195723 | 28 | 98 | 0.0 | 6.4 | 0.00 | 0.00 | 0.00 | 71 | 1030.0 |
| 20260905195155 | 28 | 80 | 0.0 | 4.8 | 0.00 | 0.00 | 0.00 | 71 | 1030.0 |
| 20260905194924 | 28 | 102 | 0.0 | 1.6 | 0.00 | 0.00 | 0.00 | 71 | 1030.1 |
| 20260905194128 | 28 | 108 | 0.0 | 1.6 | 0.00 | 0.00 | 0.00 | 72 | 1030.1 |
| 20260905193605 | 28 | 86 | 0.0 | 0.0 | 0.00 | 0.00 | 0.00 | 73 | 1030.1 |
| 20260905193109 | 27 | 24 | 0.0 | 0.0 | 0.00 | 0.00 | 0.00 | 73 | 1030.2 |
| 20260905192543 | 27 | 70 | 0.0 | 4.8 | 0.00 | 0.00 | 0.00 | 73 | 1030.3 |
| 20260905192014 | 27 | 29 | 0.0 | 0.0 | 0.00 | 0.00 | 0.00 | 72 | 1030.4 |
| 20260905191745 | 27 | 29 | 0.0 | 0.0 | 0.00 | 0.00 | 0.00 | 72 | 1030.6 |
| 20260905191007 | 27 | 29 | 0.0 | 0.0 | 0.00 | 0.00 | 0.00 | 73 | 1030.6 |
| 20260905190504 | 27 | 28 | 0.0 | 0.0 | 0.00 | 0.00 | 0.00 | 73 | 1030.7 |
| 20260905185955 | 27 | 28 | 0.0 | 0.0 | 0.00 | 0.00 | 0.00 | 72 | 1030.8 |
| 20260905185426 | 27 | 28 | 0.0 | 0.0 | 0.00 | 0.00 | 0.00 | 71 | 1030.9 |
| 20260905184923 | 28 | 165 | 0.0 | 0.0 | 0.00 | 0.00 | 0.00 | 71 | 1030.8 |
| 20260905184423 | 28 | 138 | 0.0 | 0.0 | 0.00 | 0.00 | 0.00 | 71 | 1030.9 |
| 20260905183854 | 28 | 136 | 0.0 | 0.0 | 0.00 | 0.00 | 0.00 | 71 | 1030.7 |
| 20260905183353 | 28 | 136 | 0.0 | 0.0 | 0.00 | 0.00 | 0.00 | 71 | 1030.9 |
| 20260905182827 | 27 | 211 | 0.0 | 0.0 | 0.00 | 0.00 | 0.00 | 73 | 1030.8 |
| 20260905182322 | 27 | 211 | 0.0 | 0.0 | 0.00 | 0.00 | 0.00 | 73 | 1030.9 |
| 20260905182051 | 27 | 169 | 0.0 | 0.0 | 0.00 | 0.00 | 0.00 | 74 | 1031.0 |
| 20260905181522 | 26 | 187 | 0.0 | 0.0 | 0.00 | 0.00 | 0.00 | 77 | 1030.9 |
| 20260905181019 | 26 | 117 | 0.0 | 1.6 | 0.00 | 0.00 | 0.00 | 78 | 1031.0 |
| 20260905180518 | 26 | 181 | 0.0 | 0.0 | 0.00 | 0.00 | 0.00 | 78 | 1031.1 |
| 20260905175739 | 26 | 127 | 0.0 | 0.0 | 0.00 | 0.00 | 0.00 | 80 | 1031.2 |
| 20260905175213 | 25 | 191 | 0.0 | 0.0 | 0.00 | 0.00 | 0.00 | 80 | 1031.2 |
| 20260905174647 | 25 | 185 | 0.0 | 0.0 | 0.00 | 0.00 | 0.00 | 82 | 1031.2 |
| 20260905174353 | 25 | 124 | 0.0 | 0.0 | 0.00 | 0.00 | 0.00 | 83 | 1031.2 |
| 20260905173554 | 24 | 173 | 0.0 | 0.0 | 0.00 | 0.00 | 0.00 | 84 | 1031.5 |
| 20260905173038 | 24 | 205 | 0.0 | 0.0 | 0.00 | 0.00 | 0.00 | 85 | 1031.6 |
| 20260905172815 | 23 | 178 | 0.0 | 4.8 | 0.00 | 0.00 | 0.00 | 86 | 1031.6 |
| 20260905172009 | 23 | 101 | 0.0 | 4.8 | 0.00 | 0.00 | 0.00 | 87 | 1031.7 |
| 20260905171718 | 23 | 90 | 0.0 | 4.8 | 0.00 | 0.00 | 0.00 | 87 | 1031.7 |
| 20260905170918 | 23 | 80 | 0.0 | 4.8 | 0.00 | 0.00 | 0.00 | 87 | 1031.8 |
| 20260905170416 | 23 | 103 | 0.0 | 0.0 | 0.00 | 0.00 | 0.00 | 88 | 1031.8 |
| 20260905165900 | 23 | 86 | 0.0 | 0.0 | 0.00 | 0.00 | 0.00 | 89 | 1031.8 |
| 20260905165359 | 23 | 113 | 0.0 | 0.0 | 0.00 | 0.00 | 0.00 | 90 | 1031.8 |
| 20260905164837 | 22 | 113 | 0.0 | 1.6 | 0.00 | 0.00 | 0.00 | 90 | 1031.7 |
| 20260905164309 | 22 | 109 | 0.0 | 3.2 | 0.00 | 0.00 | 0.00 | 91 | 1031.7 |
| 20260905163807 | 22 | 88 | 0.0 | 3.2 | 0.00 | 0.00 | 0.00 | 91 | 1032.0 |
| 20260905163246 | 22 | 69 | 0.0 | 0.0 | 0.00 | 0.00 | 0.00 | 92 | 1031.8 |
| 20260905162746 | 22 | 66 | 0.0 | 0.0 | 0.00 | 0.00 | 0.00 | 93 | 1032.0 |
| 20260905162248 | 22 | 88 | 0.0 | 0.0 | 0.00 | 0.00 | 0.00 | 93 | 1031.8 |
| 20260905161722 | 22 | 82 | 0.0 | 0.0 | 0.00 | 0.00 | 0.00 | 94 | 1031.6 |
| 20260905161158 | 22 | 102 | 0.0 | 0.0 | 0.00 | 0.00 | 0.00 | 95 | 1031.5 |
| 20260905160630 | 22 | 96 | 0.0 | 0.0 | 0.00 | 0.00 | 0.00 | 95 | 1031.5 |
| 20260905160127 | 22 | 5 | 0.0 | 0.0 | 0.00 | 0.00 | 0.00 | 95 | 1031.5 |
| 20260905155831 | 21 | 68 | 0.0 | 0.0 | 0.00 | 0.00 | 0.00 | 96 | 1031.5 |
| 20260905155045 | 21 | 32 | 0.0 | 0.0 | 0.00 | 0.00 | 0.00 | 96 | 1031.5 |
| 20260905154544 | 21 | 76 | 0.0 | 0.0 | 0.00 | 0.00 | 0.00 | 97 | 1031.4 |
| 20260905154241 | 21 | 58 | 0.0 | 0.0 | 0.00 | 0.00 | 0.00 | 97 | 1031.5 |
| 20260905153442 | 21 | 58 | 0.0 | 0.0 | 0.00 | 0.00 | 0.00 | 97 | 1031.5 |
| 20260905152941 | 21 | 100 | 0.0 | 0.0 | 0.00 | 0.00 | 0.00 | 97 | 1031.5 |
| 20260905152424 | 21 | 100 | 0.0 | 0.0 | 0.00 | 0.00 | 0.00 | 97 | 1031.7 |
| 20260905151926 | 21 | 100 | 0.0 | 0.0 | 0.00 | 0.00 | 0.00 | 97 | 1031.6 |
| 20260905151358 | 21 | 100 | 0.0 | 0.0 | 0.00 | 0.00 | 0.00 | 97 | 1031.6 |
| 20260905150857 | 21 | 100 | 0.0 | 0.0 | 0.00 | 0.00 | 0.00 | 97 | 1031.4 |
| 20260905150352 | 20 | 17 | 0.0 | 0.0 | 0.00 | 0.00 | 0.00 | 97 | 1031.2 |
| 20260905145849 | 20 | 67 | 0.0 | 0.0 | 0.00 | 0.00 | 0.00 | 97 | 1031.0 |
| 20260905145346 | 20 | 13 | 0.0 | 0.0 | 0.00 | 0.00 | 0.00 | 97 | 1031.0 |
| 20260905144848 | 20 | 58 | 0.0 | 0.0 | 0.00 | 0.00 | 0.00 | 97 | 1030.9 |
| 20260905144320 | 20 | 355 | 0.0 | 0.0 | 0.00 | 0.00 | 0.00 | 97 | 1030.8 |
| 20260905143816 | 20 | 19 | 0.0 | 0.0 | 0.00 | 0.00 | 0.00 | 97 | 1030.9 |
| 20260905143314 | 20 | 21 | 0.0 | 0.0 | 0.00 | 0.00 | 0.00 | 97 | 1031.0 |
| 20260905142812 | 20 | 102 | 0.0 | 0.0 | 0.00 | 0.00 | 0.00 | 97 | 1030.9 |
| 20260905142255 | 20 | 24 | 0.0 | 0.0 | 0.00 | 0.00 | 0.00 | 97 | 1031.0 |
| 20260905141755 | 20 | 10 | 0.0 | 0.0 | 0.00 | 0.00 | 0.00 | 97 | 1031.0 |
| 20260905141245 | 20 | 12 | 0.0 | 0.0 | 0.00 | 0.00 | 0.00 | 97 | 1030.9 |
| 20260905140744 | 20 | 20 | 0.0 | 0.0 | 0.00 | 0.00 | 0.00 | 97 | 1030.9 |
| 20260905140247 | 20 | 34 | 0.0 | 0.0 | 0.00 | 0.00 | 0.00 | 97 | 1031.0 |
| 20260905135718 | 20 | 26 | 0.0 | 0.0 | 0.00 | 0.00 | 0.00 | 97 | 1030.9 |
| 20260905135215 | 20 | 30 | 0.0 | 0.0 | 0.00 | 0.00 | 0.00 | 97 | 1030.9 |
| 20260905134704 | 20 | 30 | 0.0 | 0.0 | 0.00 | 0.00 | 0.00 | 97 | 1031.0 |
| 20260905134202 | 20 | 36 | 0.0 | 0.0 | 0.00 | 0.00 | 0.00 | 97 | 1031.0 |
| 20260905133634 | 20 | 39 | 0.0 | 0.0 | 0.00 | 0.00 | 0.00 | 97 | 1031.1 |
| 20260905133135 | 20 | 38 | 0.0 | 0.0 | 0.00 | 0.00 | 0.00 | 97 | 1031.1 |
| 20260905132606 | 20 | 29 | 0.0 | 0.0 | 0.00 | 0.00 | 0.00 | 97 | 1031.1 |
| 20260905132101 | 20 | 28 | 0.0 | 0.0 | 0.00 | 0.00 | 0.00 | 97 | 1030.9 |
| 20260905131537 | 20 | 28 | 0.0 | 0.0 | 0.00 | 0.00 | 0.00 | 97 | 1030.9 |
| 20260905131034 | 20 | 28 | 0.0 | 0.0 | 0.00 | 0.00 | 0.00 | 97 | 1030.8 |
| 20260905130536 | 20 | 28 | 0.0 | 0.0 | 0.00 | 0.00 | 0.00 | 97 | 1030.8 |
| 20260905130255 | 20 | 28 | 0.0 | 0.0 | 0.00 | 0.00 | 0.00 | 96 | 1030.6 |
| 20260905125457 | 20 | 32 | 0.0 | 0.0 | 0.00 | 0.00 | 0.00 | 96 | 1030.4 |
| 20260905124956 | 20 | 32 | 0.0 | 0.0 | 0.00 | 0.00 | 0.00 | 96 | 1030.3 |
| 20260905124431 | 20 | 32 | 0.0 | 0.0 | 0.00 | 0.00 | 0.00 | 96 | 1030.1 |
| 20260905124144 | 19 | 32 | 0.0 | 0.0 | 0.00 | 0.00 | 0.00 | 96 | 1029.8 |
| 20260905123413 | 19 | 28 | 0.0 | 0.0 | 0.00 | 0.00 | 0.00 | 96 | 1029.4 |
| 20260905122904 | 19 | 28 | 0.0 | 0.0 | 0.00 | 0.00 | 0.00 | 96 | 1029.4 |
| 20260905122407 | 19 | 22 | 0.0 | 0.0 | 0.00 | 0.00 | 0.00 | 96 | 1029.3 |
| 20260905122125 | 19 | 39 | 0.0 | 0.0 | 0.00 | 0.00 | 0.00 | 96 | 1029.4 |
| 20260905121356 | 19 | 41 | 0.0 | 0.0 | 0.00 | 0.00 | 0.00 | 96 | 1029.7 |
| 20260905120854 | 19 | 41 | 0.0 | 0.0 | 0.00 | 0.00 | 0.00 | 96 | 1029.7 |
| 20260905120352 | 19 | 38 | 0.0 | 0.0 | 0.00 | 0.00 | 0.00 | 96 | 1029.9 |
| 20260905115829 | 19 | 29 | 0.0 | 0.0 | 0.00 | 0.00 | 0.00 | 96 | 1030.0 |
| 20260905115308 | 19 | 29 | 0.0 | 0.0 | 0.00 | 0.00 | 0.00 | 96 | 1030.0 |
| 20260905114810 | 19 | 29 | 0.0 | 0.0 | 0.00 | 0.00 | 0.00 | 96 | 1029.9 |
| 20260905114241 | 19 | 44 | 0.0 | 0.0 | 0.00 | 0.00 | 0.00 | 96 | 1029.7 |
| 20260905113736 | 19 | 5 | 0.0 | 0.0 | 0.00 | 0.00 | 0.00 | 96 | 1029.7 |
| 20260905113237 | 19 | 5 | 0.0 | 1.6 | 0.00 | 0.00 | 0.00 | 96 | 1029.4 |
| 20260905113007 | 19 | 11 | 0.0 | 1.6 | 0.00 | 0.00 | 0.00 | 96 | 1029.4 |
| 20260905112231 | 19 | 69 | 0.0 | 1.6 | 0.00 | 0.00 | 0.00 | 96 | 1029.3 |
| 20260905111732 | 19 | 88 | 0.0 | 1.6 | 0.00 | 0.00 | 0.00 | 96 | 1029.2 |
| 20260905111215 | 19 | 20 | 0.0 | 9.7 | 0.00 | 0.00 | 0.00 | 96 | 1029.3 |
| 20260905110630 | 19 | 20 | 0.0 | 0.0 | 0.00 | 0.00 | 0.00 | 96 | 1029.3 |
| 20260905110107 | 19 | 13 | 0.0 | 0.0 | 0.00 | 0.00 | 0.00 | 96 | 1029.4 |
| 20260905105548 | 19 | 18 | 0.0 | 0.0 | 0.00 | 0.00 | 0.00 | 96 | 1029.6 |
| 20260905105026 | 19 | 44 | 0.0 | 0.0 | 0.00 | 0.00 | 0.00 | 96 | 1029.6 |
| 20260905104504 | 19 | 17 | 0.0 | 0.0 | 0.00 | 0.00 | 0.00 | 96 | 1029.3 |
| 20260905104002 | 19 | 16 | 0.0 | 0.0 | 0.00 | 0.00 | 0.00 | 96 | 1029.3 |
| 20260905103732 | 19 | 11 | 0.0 | 0.0 | 0.00 | 0.00 | 0.00 | 96 | 1029.2 |
| 20260905103001 | 19 | 11 | 0.0 | 0.0 | 0.00 | 0.00 | 0.00 | 96 | 1029.3 |
| 20260905102500 | 19 | 16 | 0.0 | 0.0 | 0.00 | 0.00 | 0.00 | 96 | 1029.1 |
| 20260905102440 | 19 | 45 | 0.0 | 1.6 | 0.00 | 0.00 | 0.00 | 96 | 1029.2 |
| 20260905101411 | 19 | 63 | 0.0 | 0.0 | 0.00 | 0.00 | 0.00 | 96 | 1029.1 |